Погода в Каадеддху

Мальдивы     0°29′15″N   72°59′38″E
темп.,
°C
ветер,
м/с
пор.,
м/с
влажн.,
%
обл.,
%
осадки,
мм/ч
давл.,
гПа
погр.,
м
25 января, пн
пн2523:00+28всв337165 1.3 1012738
02:00+28всв3373100 1.1 1010547
05:00+27в2272100 2.4 1010458
08:00+28в2270100 0.1 1012668
11:00+28в126878 0.1 1012709
14:00+28ссв226882 0.1 1010720
17:00+28ссв337291 1.8 1009581
20:00+28св5675100 3.1 1011683
26 января, вт
вт2623:00+28св5675100 3.8 1011795
02:00+28св6677100 3.5 1008627
05:00+28св677495 9.4 1009613
08:00+28св567499 6.3 1011493
11:00+28св7775100 8.9 1011638
14:00+27ссв998376 3.3 1008429
17:00+25ссв899088 8.1 1008304
20:00+26с5580100 2.7 1010393
27 января, ср
ср2723:00+25з2284100 4.6 1011184
02:00+25ююв3386100 3.8 1009234
05:00+26юз6583100 8.5 1009356
08:00+26з448189 0.7 1011250
11:00+27ссз457894 0.9 1011535
14:00+27с6676100 0.1 1008765
17:00+27ссв7878100 0.1 1008858
20:00+28ссв6773100 0.1 1010889
28 января, чт
чт2823:00+28св787388 0.1 1011998
02:00+28св7775100 0.1 10091001
05:00+27ссв677871 0.4 1009847
08:00+28ссв787876 0.2 1011873
11:00+28ссв787777 0.3 1011882
14:00+28ссв787747 0.1 1009825
17:00+28ссв777573 0.1 1009788
20:00+28ссв787410 0.0 1011833
29 января, пт
пт2923:00+28ссв777723 0.0 1012857
02:00+27ссв6676100 0.0 1009855
05:00+28ссв5568100 0.0 1009900
08:00+28ссв456849 0.0 1011825
11:00+28ссв446974 0.0 1011849
14:00+28ссв436885 0.0 1009975
17:00+28с336785 0.0 1009977
20:00+28с337138 0.3 1011800